User: anonymous
Location: Caltech
(34.1382°N, 118.1253°W)
Time: 17:22:25
(UTC-07:00)
Language:

NOAA 19 - Orbit

View from above orbital plane
View from above orbital plane
View from above satellite
View from above satellite

Ground track
Ground track

The orbit data is extracted from the following two-line orbital elements,

1 33591U 09005A   14266.09104528  .00000062  00000-0  58619-4 0  3987
2 33591 098.9537 210.8728 0013674 199.2293 289.2288 14.11766864289808
Epoch (UTC): 23 September 2014 02:11:06
Eccentricity: 0.0013674
inclination: 98.9537°
perigee height: 843 km
apogee height: 863 km
right ascension of ascending node: 210.8728°
argument of perigee: 199.2293°
revolutions per day: 14.11766864
mean anomaly at epoch: 289.2288°
orbit number at epoch: 28980

The dashed part of the orbit path shows where the satellite is in the earth's shadow,  

DLR